SBI6241 UHWW-ZBAD

Flight info

Callsign SBI6241
Flight time 2h 32m
Altitude 34100
Route SANAR2W SANAR B451 WQG G341 TGO/K0865S1100 G212 BUMDU BUMDU5L
Aircraft B738/M-SDE2E3FGHIRWXY/LB1

Departure

Time 2026-05-01 11:05
Airport Vladivostok International Airport (UHWW)

Arrival

Time 2026-05-01 13:37
Airport Beijing Daxing International Airport (ZBAD)
Time Latitude Longitude Altitude Speed Heading
2026-05-01 10:35 43.39951 132.16627 69 ft 0 kts 151°
2026-05-01 11:00 43.39950 132.16628 65 ft 1 kts 152°
2026-05-01 11:01 43.39934 132.16641 65 ft 5 kts 148°
2026-05-01 11:01 43.39913 132.16694 69 ft 8 kts 81°
2026-05-01 11:01 43.39944 132.16783 69 ft 13 kts 61°
2026-05-01 11:01 43.39995 132.16908 62 ft 17 kts 60°
2026-05-01 11:02 43.40050 132.17046 65 ft 16 kts 60°
2026-05-01 11:02 43.40111 132.17089 66 ft 9 kts 347°
2026-05-01 11:02 43.40166 132.17053 62 ft 9 kts 332°
2026-05-01 11:02 43.40219 132.17014 65 ft 10 kts 331°
2026-05-01 11:03 43.40289 132.16962 63 ft 14 kts 332°
2026-05-01 11:03 43.40389 132.16887 63 ft 19 kts 331°
2026-05-01 11:03 43.40429 132.16804 63 ft 8 kts 265°
2026-05-01 11:03 43.40408 132.16734 62 ft 4 kts 241°
2026-05-01 11:04 43.40408 132.16733 67 ft 0 kts 241°
2026-05-01 11:04 43.40400 132.16715 62 ft 14 kts 241°
2026-05-01 11:04 43.40228 132.16290 62 ft 86 kts 241°
2026-05-01 11:04 43.39832 132.15312 66 ft 146 kts 240°
2026-05-01 11:05 43.39266 132.13906 315 ft 178 kts 242°
2026-05-01 11:05 43.38668 132.12393 1073 ft 183 kts 244°
2026-05-01 11:05 43.38021 132.10785 1684 ft 194 kts 246°
2026-05-01 11:05 43.37370 132.09175 2481 ft 194 kts 247°
2026-05-01 11:06 43.36718 132.07575 3294 ft 190 kts 247°
2026-05-01 11:06 43.36041 132.05904 3738 ft 213 kts 247°
2026-05-01 11:06 43.35297 132.04071 4175 ft 224 kts 246°
2026-05-01 11:07 43.32996 132.01223 5432 ft 240 kts 192°
2026-05-01 11:07 43.31346 132.01434 6069 ft 244 kts 156°
2026-05-01 11:07 43.30024 132.02861 6618 ft 245 kts 121°
2026-05-01 11:07 43.29490 132.05018 7156 ft 239 kts 84°
2026-05-01 11:08 43.29866 132.07191 7712 ft 234 kts 63°
2026-05-01 11:08 43.30484 132.09279 8255 ft 239 kts 63°
2026-05-01 11:08 43.31773 132.13555 9397 ft 246 kts 63°
2026-05-01 11:09 43.32427 132.15755 9937 ft 250 kts 64°
2026-05-01 11:09 43.33079 132.17972 10516 ft 251 kts 64°
2026-05-01 11:09 43.33731 132.20203 11062 ft 253 kts 64°
2026-05-01 11:10 43.35046 132.24734 12158 ft 257 kts 65°
2026-05-01 11:10 43.35713 132.27031 12686 ft 260 kts 63°
2026-05-01 11:10 43.36739 132.29010 13203 ft 254 kts 33°
2026-05-01 11:10 43.38307 132.29995 13692 ft 247 kts
2026-05-01 11:11 43.39987 132.29870 14144 ft 242 kts 340°
2026-05-01 11:11 43.41518 132.28961 14620 ft 240 kts 328°
2026-05-01 11:11 43.42960 132.27849 15097 ft 242 kts 327°
2026-05-01 11:11 43.44448 132.26684 15562 ft 244 kts 327°
2026-05-01 11:12 43.45934 132.25535 16035 ft 246 kts 327°
2026-05-01 11:12 43.47371 132.24316 16497 ft 245 kts 314°
2026-05-01 11:12 43.48328 132.22424 16945 ft 242 kts 288°
2026-05-01 11:12 43.48590 132.20102 17168 ft 255 kts 266°
2026-05-01 11:13 43.48117 132.17680 17295 ft 273 kts 249°
2026-05-01 11:13 43.47279 132.15234 17427 ft 293 kts 246°
2026-05-01 11:13 43.46329 132.12649 17596 ft 312 kts 245°
2026-05-01 11:13 43.45314 132.09917 17744 ft 330 kts 245°
2026-05-01 11:14 43.44242 132.07024 17894 ft 348 kts 245°
2026-05-01 11:14 43.43124 132.03987 18025 ft 365 kts 245°
2026-05-01 11:14 43.41954 132.00793 18129 ft 381 kts 245°
2026-05-01 11:14 43.40742 131.97477 18225 ft 395 kts 245°
2026-05-01 11:15 43.39489 131.94040 18321 ft 409 kts 245°
2026-05-01 11:15 43.38201 131.90506 18521 ft 418 kts 245°
2026-05-01 11:15 43.36891 131.86916 18961 ft 420 kts 245°
2026-05-01 11:15 43.35581 131.83331 19470 ft 421 kts 245°
2026-05-01 11:16 43.34265 131.79730 19931 ft 422 kts 245°
2026-05-01 11:16 43.32944 131.76118 20359 ft 424 kts 245°
2026-05-01 11:16 43.31617 131.72494 20755 ft 427 kts 245°
2026-05-01 11:16 43.30277 131.68840 21189 ft 428 kts 245°
2026-05-01 11:17 43.28936 131.65186 21600 ft 430 kts 245°
2026-05-01 11:17 43.27583 131.61504 21980 ft 433 kts 245°
2026-05-01 11:17 43.26225 131.57811 22348 ft 435 kts 245°
2026-05-01 11:17 43.24859 131.54103 22725 ft 437 kts 245°
2026-05-01 11:18 43.23484 131.50378 23079 ft 439 kts 245°
2026-05-01 11:18 43.22237 131.46565 23369 ft 439 kts 255°
2026-05-01 11:18 43.21705 131.42461 23656 ft 439 kts 269°
2026-05-01 11:18 43.21881 131.38282 23979 ft 439 kts 276°
2026-05-01 11:19 43.22233 131.34112 24251 ft 441 kts 277°
2026-05-01 11:19 43.22469 131.31344 24413 ft 443 kts 276°
2026-05-01 11:19 43.22806 131.27134 24670 ft 445 kts 276°
2026-05-01 11:19 43.23114 131.22916 24949 ft 446 kts 276°
2026-05-01 11:20 43.23407 131.18664 25205 ft 448 kts 275°
2026-05-01 11:20 43.23645 131.14414 25446 ft 449 kts 274°
2026-05-01 11:20 43.23848 131.10115 25665 ft 451 kts 274°
2026-05-01 11:20 43.24036 131.05827 25904 ft 451 kts 274°
2026-05-01 11:21 43.24222 131.01536 26203 ft 450 kts 274°
2026-05-01 11:21 43.24411 130.97253 26516 ft 449 kts 274°
2026-05-01 11:21 43.24603 130.92988 26822 ft 448 kts 274°
2026-05-01 11:21 43.24796 130.88736 27121 ft 447 kts 274°
2026-05-01 11:22 43.24989 130.84486 27422 ft 446 kts 274°
2026-05-01 11:22 43.25179 130.80298 27774 ft 445 kts 274°
2026-05-01 11:22 43.25373 130.76011 28087 ft 444 kts 274°
2026-05-01 11:22 43.25562 130.71785 28401 ft 443 kts 274°
2026-05-01 11:23 43.25750 130.67570 28722 ft 442 kts 274°
2026-05-01 11:23 43.25932 130.63414 29053 ft 441 kts 274°
2026-05-01 11:23 43.26115 130.59222 29375 ft 441 kts 274°
2026-05-01 11:23 43.26296 130.55029 29694 ft 440 kts 274°
2026-05-01 11:24 43.26475 130.50840 29970 ft 439 kts 274°
2026-05-01 11:24 43.26653 130.46665 30231 ft 438 kts 274°
2026-05-01 11:24 43.27002 130.38333 30741 ft 437 kts 274°
2026-05-01 11:25 43.27174 130.34172 31007 ft 436 kts 274°
2026-05-01 11:25 43.27513 130.25890 31531 ft 434 kts 275°
2026-05-01 11:25 43.27679 130.21763 31801 ft 433 kts 275°
2026-05-01 11:26 43.27844 130.17640 32060 ft 432 kts 275°
2026-05-01 11:26 43.28166 130.09439 32594 ft 429 kts 275°
2026-05-01 11:26 43.28325 130.05356 32858 ft 428 kts 275°
2026-05-01 11:27 43.28482 130.01286 33185 ft 426 kts 275°
2026-05-01 11:27 43.28636 129.97243 33547 ft 423 kts 275°
2026-05-01 11:27 43.28787 129.93231 33822 ft 420 kts 275°
2026-05-01 11:28 43.29088 129.85218 33865 ft 420 kts 275°
2026-05-01 11:28 43.29472 129.77255 33863 ft 416 kts 281°
2026-05-01 11:29 43.31134 129.65700 33877 ft 412 kts 283°
2026-05-01 11:30 43.32795 129.54163 33872 ft 409 kts 282°
2026-05-01 11:30 43.33875 129.46505 33874 ft 408 kts 282°
2026-05-01 11:31 43.34945 129.38870 33890 ft 407 kts 283°
2026-05-01 11:31 43.36009 129.31236 33889 ft 407 kts 283°
2026-05-01 11:32 43.37069 129.23595 33899 ft 407 kts 283°
2026-05-01 11:32 43.38126 129.15940 33917 ft 408 kts 283°
2026-05-01 11:33 43.39180 129.08262 33906 ft 409 kts 283°
2026-05-01 11:33 43.40216 129.00563 33929 ft 409 kts 282°
2026-05-01 11:34 43.41227 128.92859 33907 ft 409 kts 282°
2026-05-01 11:34 43.42232 128.85167 33910 ft 408 kts 282°
2026-05-01 11:35 43.43232 128.77490 33928 ft 407 kts 282°
2026-05-01 11:35 43.44226 128.69826 33919 ft 406 kts 282°
2026-05-01 11:36 43.45211 128.62187 33930 ft 405 kts 282°
2026-05-01 11:36 43.46190 128.54558 33929 ft 404 kts 282°
2026-05-01 11:37 43.47161 128.46949 33934 ft 403 kts 283°
2026-05-01 11:37 43.48122 128.39374 33937 ft 401 kts 282°
2026-05-01 11:38 43.49076 128.31819 33936 ft 400 kts 283°
2026-05-01 11:38 43.50035 128.24305 33940 ft 398 kts 283°
2026-05-01 11:39 43.51028 128.16821 33945 ft 396 kts 283°
2026-05-01 11:39 43.52013 128.09362 33946 ft 396 kts 283°
2026-05-01 11:40 43.52990 128.01904 33952 ft 395 kts 283°
2026-05-01 11:40 43.53958 127.94455 33951 ft 395 kts 283°
2026-05-01 11:41 43.54917 127.87038 33953 ft 395 kts 283°
2026-05-01 11:41 43.55881 127.79538 33955 ft 395 kts 283°
2026-05-01 11:42 43.56830 127.72117 33958 ft 396 kts 283°
2026-05-01 11:42 43.57782 127.64641 33970 ft 396 kts 283°
2026-05-01 11:43 43.58730 127.57158 33962 ft 396 kts 283°
2026-05-01 11:43 43.59672 127.49680 33965 ft 396 kts 283°
2026-05-01 11:44 43.61074 127.38475 33969 ft 395 kts 283°
2026-05-01 11:44 43.62003 127.31010 33956 ft 395 kts 283°
2026-05-01 11:45 43.62889 127.23538 33961 ft 394 kts 282°
2026-05-01 11:45 43.63696 127.16059 33967 ft 394 kts 281°
2026-05-01 11:46 43.64492 127.08596 33979 ft 392 kts 281°
2026-05-01 11:46 43.65294 127.01128 33970 ft 393 kts 282°
2026-05-01 11:47 43.66092 126.93672 33968 ft 393 kts 281°
2026-05-01 11:47 43.66888 126.86209 33973 ft 392 kts 281°
2026-05-01 11:48 43.67678 126.78753 33973 ft 393 kts 281°
2026-05-01 11:48 43.68462 126.71301 33986 ft 391 kts 281°
2026-05-01 11:49 43.69240 126.63860 33990 ft 391 kts 281°
2026-05-01 11:49 43.70012 126.56418 33974 ft 391 kts 281°
2026-05-01 11:50 43.70782 126.48967 33977 ft 392 kts 281°
2026-05-01 11:50 43.71546 126.41514 33966 ft 392 kts 281°
2026-05-01 11:51 43.72305 126.34062 33973 ft 391 kts 281°
2026-05-01 11:51 43.73059 126.26610 33968 ft 391 kts 281°
2026-05-01 11:52 43.73808 126.19164 33969 ft 391 kts 281°
2026-05-01 11:52 43.74551 126.11719 33981 ft 390 kts 281°
2026-05-01 11:53 43.75288 126.04293 33975 ft 390 kts 281°
2026-05-01 11:53 43.76020 125.96860 33974 ft 389 kts 281°
2026-05-01 11:54 43.76831 125.89516 33967 ft 388 kts 282°
2026-05-01 11:54 43.77222 125.82045 33960 ft 394 kts 271°
2026-05-01 11:55 43.76795 125.74497 33964 ft 393 kts 271°
2026-05-01 11:55 43.76368 125.66967 33971 ft 392 kts 271°
2026-05-01 11:56 43.75952 125.59459 33968 ft 391 kts 271°
2026-05-01 11:56 43.75537 125.51953 33965 ft 391 kts 271°
2026-05-01 11:57 43.75190 125.45720 33969 ft 390 kts 271°
2026-05-01 11:57 43.74698 125.36981 33972 ft 389 kts 271°
2026-05-01 11:58 43.74273 125.29523 33977 ft 389 kts 271°
2026-05-01 11:59 43.73627 125.18362 33979 ft 387 kts 271°
2026-05-01 11:59 43.73193 125.10949 33979 ft 387 kts 271°
2026-05-01 12:00 43.72533 124.99858 33984 ft 385 kts 271°
2026-05-01 12:01 43.71866 124.88821 33986 ft 383 kts 271°
2026-05-01 12:01 43.71416 124.81480 33987 ft 383 kts 271°
2026-05-01 12:02 43.70963 124.74164 33989 ft 382 kts 271°
2026-05-01 12:02 43.70507 124.66865 33984 ft 381 kts 271°
2026-05-01 12:03 43.70046 124.59584 33986 ft 379 kts 271°
2026-05-01 12:03 43.69584 124.52336 33983 ft 379 kts 271°
2026-05-01 12:04 43.69118 124.45101 33987 ft 377 kts 271°
2026-05-01 12:04 43.68652 124.37936 33993 ft 376 kts 271°
2026-05-01 12:05 43.68178 124.30712 33997 ft 376 kts 271°
2026-05-01 12:05 43.67546 124.19975 33991 ft 375 kts 272°
2026-05-01 12:06 43.67146 124.12814 33992 ft 374 kts 271°
2026-05-01 12:06 43.66739 124.05665 33993 ft 373 kts 271°
2026-05-01 12:07 43.66324 123.98530 33999 ft 372 kts 271°
2026-05-01 12:07 43.65905 123.91414 33998 ft 371 kts 271°
2026-05-01 12:08 43.65552 123.85479 33996 ft 370 kts 271°
2026-05-01 12:08 43.65127 123.78390 34000 ft 370 kts 271°
2026-05-01 12:09 43.64701 123.71364 33998 ft 369 kts 271°
2026-05-01 12:09 43.64269 123.64311 33999 ft 369 kts 271°
2026-05-01 12:10 43.63613 123.53735 33999 ft 368 kts 271°
2026-05-01 12:11 43.62948 123.43178 34001 ft 368 kts 271°
2026-05-01 12:11 43.62499 123.36140 34002 ft 368 kts 271°
2026-05-01 12:12 43.62048 123.29116 34003 ft 367 kts 271°
2026-05-01 12:12 43.61592 123.22098 34002 ft 367 kts 271°
2026-05-01 12:13 43.61177 123.15091 34007 ft 366 kts 272°
2026-05-01 12:13 43.60832 123.08095 34005 ft 365 kts 272°
2026-05-01 12:14 43.60484 123.01100 34005 ft 365 kts 272°
2026-05-01 12:14 43.60128 122.94153 34005 ft 365 kts 272°
2026-05-01 12:15 43.59760 122.87123 34002 ft 365 kts 271°
2026-05-01 12:15 43.59392 122.80191 34006 ft 365 kts 271°
2026-05-01 12:16 43.59018 122.73214 34011 ft 365 kts 271°
2026-05-01 12:16 43.58638 122.66236 34011 ft 365 kts 271°
2026-05-01 12:17 43.58254 122.59249 34005 ft 365 kts 271°
2026-05-01 12:17 43.57867 122.52271 34011 ft 365 kts 271°
2026-05-01 12:18 43.57671 122.48778 34157 ft 365 kts 271°
2026-05-01 12:18 43.57475 122.45300 34398 ft 363 kts 271°
2026-05-01 12:18 43.57278 122.41832 34626 ft 362 kts 271°
2026-05-01 12:18 43.57082 122.38376 34858 ft 361 kts 271°
2026-05-01 12:19 43.56885 122.34925 35095 ft 360 kts 271°
2026-05-01 12:19 43.56688 122.31482 35331 ft 360 kts 270°
2026-05-01 12:19 43.56489 122.28050 35570 ft 359 kts 270°
2026-05-01 12:19 43.56202 122.24630 35800 ft 362 kts 264°
2026-05-01 12:20 43.55522 122.21277 36007 ft 366 kts 258°
2026-05-01 12:20 43.54614 122.17951 36003 ft 374 kts 255°
2026-05-01 12:20 43.53444 122.14703 36001 ft 386 kts 247°
2026-05-01 12:20 43.51929 122.11609 36021 ft 393 kts 244°
2026-05-01 12:21 43.48705 122.05423 36018 ft 400 kts 244°
2026-05-01 12:21 43.45427 121.99200 36010 ft 402 kts 244°
2026-05-01 12:22 43.42149 121.92946 36008 ft 403 kts 244°
2026-05-01 12:22 43.38878 121.86687 36003 ft 403 kts 244°
2026-05-01 12:23 43.35615 121.80442 36000 ft 402 kts 244°
2026-05-01 12:23 43.32381 121.74262 36005 ft 400 kts 244°
2026-05-01 12:24 43.29139 121.68078 36009 ft 398 kts 244°
2026-05-01 12:24 43.25910 121.61932 36010 ft 397 kts 244°
2026-05-01 12:25 43.21077 121.52757 36012 ft 395 kts 244°
2026-05-01 12:26 43.17861 121.46664 36014 ft 394 kts 244°
2026-05-01 12:26 43.13049 121.37575 36018 ft 393 kts 243°
2026-05-01 12:27 43.08239 121.28518 36022 ft 392 kts 243°
2026-05-01 12:28 43.03432 121.19493 36024 ft 391 kts 243°
2026-05-01 12:29 42.98624 121.10492 36027 ft 391 kts 243°
2026-05-01 12:29 42.93811 121.01512 36023 ft 390 kts 243°
2026-05-01 12:30 42.88998 120.92558 36034 ft 390 kts 243°
2026-05-01 12:31 42.85790 120.86605 36025 ft 389 kts 243°
2026-05-01 12:31 42.82583 120.80665 36037 ft 389 kts 243°
2026-05-01 12:32 42.79374 120.74735 36036 ft 389 kts 243°
2026-05-01 12:32 42.74558 120.65856 36038 ft 388 kts 243°
2026-05-01 12:33 42.71371 120.59994 36038 ft 388 kts 243°
2026-05-01 12:33 42.68158 120.54096 36041 ft 388 kts 243°
2026-05-01 12:34 42.64945 120.48210 36043 ft 388 kts 243°
2026-05-01 12:34 42.61727 120.42326 36044 ft 388 kts 243°
2026-05-01 12:35 42.58510 120.36456 36047 ft 388 kts 243°
2026-05-01 12:35 42.55291 120.30595 36042 ft 388 kts 243°
2026-05-01 12:36 42.52072 120.24744 36052 ft 387 kts 243°
2026-05-01 12:36 42.48851 120.18901 36057 ft 387 kts 243°
2026-05-01 12:37 42.45628 120.13065 36044 ft 387 kts 243°
2026-05-01 12:37 42.42403 120.07238 36058 ft 386 kts 243°
2026-05-01 12:38 42.39178 120.01422 36055 ft 387 kts 243°
2026-05-01 12:38 42.35947 119.95605 36057 ft 387 kts 243°
2026-05-01 12:39 42.32711 119.89792 36048 ft 387 kts 242°
2026-05-01 12:39 42.29473 119.83988 36046 ft 387 kts 242°
2026-05-01 12:40 42.26232 119.78187 36051 ft 387 kts 242°
2026-05-01 12:40 42.23006 119.72424 36052 ft 388 kts 242°
2026-05-01 12:41 42.19732 119.66587 36052 ft 388 kts 242°
2026-05-01 12:41 42.16498 119.60834 36056 ft 387 kts 242°
2026-05-01 12:42 42.13239 119.55047 36059 ft 388 kts 242°
2026-05-01 12:42 42.09978 119.49266 36052 ft 388 kts 242°
2026-05-01 12:43 42.06708 119.43482 36050 ft 388 kts 242°
2026-05-01 12:43 42.03442 119.37716 36052 ft 388 kts 242°
2026-05-01 12:44 42.00167 119.31944 36051 ft 388 kts 242°
2026-05-01 12:45 41.93621 119.20442 36044 ft 387 kts 242°
2026-05-01 12:45 41.90341 119.14694 36040 ft 388 kts 242°
2026-05-01 12:46 41.87059 119.08953 36047 ft 388 kts 242°
2026-05-01 12:46 41.83770 119.03213 36049 ft 388 kts 242°
2026-05-01 12:47 41.80484 118.97487 36049 ft 387 kts 242°
2026-05-01 12:47 41.77197 118.91772 36046 ft 387 kts 242°
2026-05-01 12:48 41.73911 118.86068 36045 ft 387 kts 242°
2026-05-01 12:48 41.70618 118.80360 36057 ft 387 kts 242°
2026-05-01 12:49 41.67317 118.74650 36058 ft 389 kts 242°
2026-05-01 12:49 41.64007 118.68938 36049 ft 389 kts 242°
2026-05-01 12:50 41.60687 118.63218 36056 ft 389 kts 241°
2026-05-01 12:50 41.57363 118.57501 36045 ft 390 kts 241°
2026-05-01 12:51 41.54033 118.51784 36055 ft 390 kts 241°
2026-05-01 12:52 41.49141 118.43207 36052 ft 384 kts 246°
2026-05-01 12:52 41.44987 118.34109 36028 ft 383 kts 246°
2026-05-01 12:53 41.40837 118.25032 36031 ft 382 kts 246°
2026-05-01 12:54 41.38064 118.19005 36033 ft 382 kts 246°
2026-05-01 12:54 41.33897 118.09977 36028 ft 381 kts 246°
2026-05-01 12:55 41.29724 118.00963 36013 ft 382 kts 246°
2026-05-01 12:56 41.26935 117.94955 36021 ft 381 kts 246°
2026-05-01 12:56 41.24616 117.89967 36008 ft 383 kts 246°
2026-05-01 12:57 41.21816 117.83956 36022 ft 382 kts 246°
2026-05-01 12:57 41.17642 117.75027 36011 ft 375 kts 246°
2026-05-01 12:58 41.14893 117.69146 35703 ft 379 kts 246°
2026-05-01 12:58 41.13502 117.66175 35173 ft 379 kts 246°
2026-05-01 12:59 41.10728 117.60266 33947 ft 378 kts 246°
2026-05-01 12:59 41.09334 117.57296 33191 ft 380 kts 245°
2026-05-01 12:59 41.06524 117.51324 31720 ft 384 kts 245°
2026-05-01 13:00 41.03039 117.45790 30199 ft 404 kts 228°
2026-05-01 13:00 41.00778 117.43515 29284 ft 414 kts 220°
2026-05-01 13:01 40.95302 117.40181 27488 ft 455 kts 207°
2026-05-01 13:01 40.92349 117.38726 26519 ft 461 kts 206°
2026-05-01 13:01 40.86342 117.35785 24940 ft 458 kts 205°
2026-05-01 13:02 40.83368 117.34290 24210 ft 455 kts 205°
2026-05-01 13:07 40.49407 116.76268 12915 ft 388 kts 221°
2026-05-01 13:07 40.47363 116.73976 12776 ft 386 kts 221°
2026-05-01 13:07 40.45325 116.71685 12622 ft 385 kts 221°
2026-05-01 13:08 40.43222 116.69585 12461 ft 387 kts 210°
2026-05-01 13:08 40.40650 116.68418 12338 ft 389 kts 191°
2026-05-01 13:08 40.37945 116.68326 12203 ft 391 kts 176°
2026-05-01 13:08 40.35275 116.68732 12071 ft 392 kts 174°
2026-05-01 13:09 40.32571 116.69199 11908 ft 392 kts 174°
2026-05-01 13:09 40.29866 116.69671 11763 ft 392 kts 174°
2026-05-01 13:09 40.27167 116.70129 11611 ft 391 kts 174°
2026-05-01 13:09 40.24439 116.70578 11472 ft 389 kts 174°
2026-05-01 13:10 40.21788 116.71003 11328 ft 388 kts 175°
2026-05-01 13:10 40.19116 116.71425 11184 ft 386 kts 175°
2026-05-01 13:10 40.16452 116.71842 11091 ft 383 kts 175°
2026-05-01 13:10 40.13829 116.72252 10981 ft 374 kts 175°
2026-05-01 13:11 40.11299 116.72648 10837 ft 358 kts 175°
2026-05-01 13:11 40.08872 116.73027 10715 ft 344 kts 175°
2026-05-01 13:11 40.06543 116.73390 10585 ft 331 kts 175°
2026-05-01 13:11 40.04303 116.73738 10473 ft 319 kts 175°
2026-05-01 13:12 40.02138 116.74074 10363 ft 307 kts 175°
2026-05-01 13:12 40.00053 116.74398 10238 ft 297 kts 175°
2026-05-01 13:12 39.98033 116.74712 10134 ft 287 kts 175°
2026-05-01 13:12 39.96081 116.75015 10028 ft 278 kts 175°
2026-05-01 13:13 39.94189 116.75309 9925 ft 269 kts 175°
2026-05-01 13:13 39.92348 116.75594 9829 ft 265 kts 175°
2026-05-01 13:13 39.90524 116.75876 9735 ft 263 kts 175°
2026-05-01 13:13 39.88692 116.76159 9640 ft 266 kts 175°
2026-05-01 13:14 39.86838 116.76445 9536 ft 270 kts 175°
2026-05-01 13:14 39.84972 116.76733 9435 ft 270 kts 175°
2026-05-01 13:14 39.83114 116.77020 9321 ft 268 kts 175°
2026-05-01 13:14 39.81269 116.77306 9217 ft 267 kts 175°
2026-05-01 13:15 39.79428 116.77590 9121 ft 265 kts 175°
2026-05-01 13:15 39.77598 116.77873 9019 ft 264 kts 175°
2026-05-01 13:15 39.75774 116.78155 8921 ft 264 kts 176°
2026-05-01 13:15 39.73954 116.78435 8817 ft 263 kts 175°
2026-05-01 13:16 39.72156 116.78713 8726 ft 263 kts 175°
2026-05-01 13:16 39.70337 116.78993 8626 ft 263 kts 175°
2026-05-01 13:16 39.68498 116.79276 8530 ft 263 kts 175°
2026-05-01 13:17 39.63063 116.80112 8236 ft 264 kts 176°
2026-05-01 13:17 39.61240 116.80392 8133 ft 264 kts 175°
2026-05-01 13:18 39.57673 116.80024 7948 ft 258 kts 201°
2026-05-01 13:18 39.55988 116.79232 7851 ft 258 kts 201°
2026-05-01 13:18 39.54306 116.78435 7748 ft 257 kts 201°
2026-05-01 13:18 39.52623 116.77641 7650 ft 257 kts 201°
2026-05-01 13:19 39.50942 116.76852 7556 ft 257 kts 201°
2026-05-01 13:19 39.49262 116.76066 7458 ft 256 kts 201°
2026-05-01 13:19 39.45912 116.74507 7270 ft 256 kts 201°
2026-05-01 13:20 39.44238 116.73731 7181 ft 255 kts 201°
2026-05-01 13:20 39.42570 116.72958 7076 ft 255 kts 201°
2026-05-01 13:20 39.40900 116.72184 6984 ft 255 kts 201°
2026-05-01 13:21 39.37569 116.70641 6794 ft 254 kts 201°
2026-05-01 13:21 39.35902 116.69870 6693 ft 254 kts 200°
2026-05-01 13:21 39.34365 116.68797 6586 ft 253 kts 223°
2026-05-01 13:21 39.33340 116.66963 6510 ft 254 kts 245°
2026-05-01 13:22 39.32912 116.64750 6426 ft 256 kts 260°
2026-05-01 13:22 39.32701 116.62471 6330 ft 256 kts 261°
2026-05-01 13:22 39.32792 116.60170 6203 ft 262 kts 284°
2026-05-01 13:22 39.33696 116.58107 6118 ft 269 kts 310°
2026-05-01 13:23 39.35258 116.56764 6011 ft 276 kts 338°
2026-05-01 13:23 39.37146 116.56257 5930 ft 278 kts 350°
2026-05-01 13:23 39.39072 116.55968 5813 ft 279 kts 351°
2026-05-01 13:23 39.40978 116.55706 5704 ft 279 kts 351°
2026-05-01 13:24 39.42934 116.55430 5595 ft 280 kts 351°
2026-05-01 13:24 39.44842 116.55151 5491 ft 279 kts 351°
2026-05-01 13:24 39.46773 116.54861 5385 ft 279 kts 351°
2026-05-01 13:25 39.50606 116.54269 5172 ft 273 kts 351°
2026-05-01 13:25 39.52480 116.53977 5070 ft 270 kts 351°
2026-05-01 13:25 39.54301 116.53692 4976 ft 270 kts 350°
2026-05-01 13:25 39.56159 116.53400 4906 ft 269 kts 350°
2026-05-01 13:26 39.58006 116.53110 4864 ft 267 kts 350°
2026-05-01 13:26 39.59854 116.52820 4815 ft 266 kts 351°
2026-05-01 13:26 39.61689 116.52531 4776 ft 265 kts 351°
2026-05-01 13:26 39.63519 116.52244 4721 ft 264 kts 351°
2026-05-01 13:27 39.65345 116.51956 4680 ft 266 kts 351°
2026-05-01 13:27 39.67192 116.51665 4643 ft 269 kts 351°
2026-05-01 13:27 39.70927 116.51076 4551 ft 270 kts 351°
2026-05-01 13:28 39.74634 116.50492 4455 ft 268 kts 351°
2026-05-01 13:28 39.76472 116.50202 4399 ft 261 kts 351°
2026-05-01 13:29 39.79276 116.47994 4302 ft 228 kts 296°
2026-05-01 13:29 39.79840 116.44165 4255 ft 215 kts 262°
2026-05-01 13:30 39.78671 116.36848 4113 ft 194 kts 224°
2026-05-01 13:31 39.76231 116.35704 4053 ft 193 kts 175°
2026-05-01 13:31 39.72274 116.36368 3938 ft 190 kts 175°
2026-05-01 13:32 39.69645 116.36793 3588 ft 189 kts 175°
2026-05-01 13:33 39.65979 116.37372 2878 ft 163 kts 174°
2026-05-01 13:33 39.63751 116.37722 2481 ft 155 kts 174°
2026-05-01 13:34 39.61759 116.38036 2080 ft 147 kts 174°
2026-05-01 13:34 39.59703 116.38360 1690 ft 149 kts 173°
2026-05-01 13:35 39.57663 116.38682 1280 ft 147 kts 172°
2026-05-01 13:35 39.56656 116.38841 1091 ft 147 kts 172°
2026-05-01 13:35 39.54597 116.39166 714 ft 150 kts 172°
2026-05-01 13:36 39.53563 116.39328 511 ft 149 kts 172°
2026-05-01 13:36 39.52533 116.39494 295 ft 149 kts 172°
2026-05-01 13:36 39.50587 116.39807 96 ft 112 kts 173°
2026-05-01 13:37 39.49962 116.39905 98 ft 69 kts 173°
2026-05-01 13:37 39.49729 116.39956 93 ft 33 kts 156°
2026-05-01 13:37 39.49565 116.40070 92 ft 0 kts 146°
2026-05-01 13:39 39.49547 116.40084 91 ft 8 kts 147°
2026-05-01 13:39 39.49472 116.40149 91 ft 18 kts 147°
2026-05-01 13:39 39.49393 116.40275 87 ft 19 kts 82°
2026-05-01 13:39 39.49487 116.40346 86 ft 14 kts 52°
2026-05-01 13:40 39.49499 116.40472 86 ft 14 kts 86°
2026-05-01 13:40 39.49510 116.40593 85 ft 13 kts 82°
2026-05-01 13:40 39.49522 116.40710 84 ft 13 kts 83°
2026-05-01 13:40 39.49560 116.40804 85 ft 13 kts 20°
2026-05-01 13:41 39.49644 116.40808 84 ft 12 kts 347°
2026-05-01 13:41 39.49692 116.40795 84 ft 5 kts 340°
2026-05-01 13:41 39.49712 116.40781 86 ft 0 kts 330°